Theta_e
312 316 317 318 318 317 316 314 314 314 314 315 316 316 317 317 317 317 317 317 315 316 318 318 317 316 316 316 314 313 314 313 312 312 313 312 310 308 308 307 307 306 306 306 307 308 308 309 309 309 308 308 308 309 309 310 310 311 311 311 310 310 310 310 312 313 315 318 320 321 321 321 321 321 321 322 322 322 322 322 322 322 322 321 321 321
313 317 319 319 318 317 316 314 313 314 314 315 316 317 318 318 318 316 316 317 314 315 319 319 316 316 315 315 314 313 313 312 311 311 311 310 308 307 307 306 306 306 306 307 308 308 308 309 309 309 309 309 308 308 308 309 309 309 310 309 310 310 310 310 311 310 311 312 315 317 318 319 319 319 319 320 320 320 320 320 320 320 320 319 319 319
315 317 318 316 314 315 315 314 314 316 316 316 318 319 319 319 319 318 318 317 314 315 319 319 316 315 316 315 313 312 312 310 310 310 308 308 307 306 306 305 306 306 307 308 308 308 308 308 309 309 309 309 308 308 308 308 308 308 308 308 308 309 310 310 310 310 310 311 312 313 313 314 314 315 315 316 316 316 316 316 317 317 317 317 317 317
318 319 316 313 312 314 315 315 316 316 317 319 319 319 320 319 318 320 320 318 316 315 317 317 317 317 316 315 313 310 310 310 308 308 307 306 305 305 305 305 306 306 307 307 307 308 308 308 309 309 309 309 308 309 308 309 309 308 308 308 308 308 308 308 308 309 309 311 312 313 313 312 312 312 312 311 311 310 310 311 311 312 312 312 313 313
319 318 315 313 315 316 316 316 317 317 319 322 322 319 320 319 317 319 319 317 317 318 318 316 320 325 321 317 314 310 310 309 307 307 306 305 304 304 304 304 305 305 306 306 307 307 308 308 308 308 308 309 309 309 308 308 309 309 308 308 308 308 308 307 307 307 307 308 309 310 311 311 311 310 310 309 308 307 307 307 307 307 307 308 308 308
317 315 315 317 317 317 317 318 319 318 319 323 324 321 320 319 319 320 321 319 319 322 319 314 320 329 326 321 318 311 309 309 307 306 305 304 304 304 304 303 303 304 304 305 306 306 307 307 308 308 308 308 308 308 308 308 308 309 308 308 308 308 308 308 308 308 307 307 307 307 307 307 307 308 307 307 307 307 306 306 306 305 305 305 305 305
317 315 318 321 321 319 318 320 322 319 318 321 322 321 322 321 319 321 320 318 321 323 318 313 318 322 320 319 318 313 311 309 306 305 304 304 303 303 303 302 303 303 303 305 305 306 307 307 308 308 308 308 308 307 308 308 308 308 308 308 308 308 308 308 308 307 308 308 307 307 307 306 306 306 306 306 306 306 306 305 305 304 304 304 304 304
317 316 318 320 320 319 319 321 321 321 320 322 321 319 321 320 316 318 315 316 321 320 318 317 315 316 316 317 316 314 313 310 306 306 304 303 302 302 301 302 302 302 302 303 304 305 306 307 307 307 307 307 307 307 307 308 308 308 308 308 308 308 307 307 307 307 308 307 307 307 307 306 306 306 305 305 305 305 305 305 304 304 303 303 303 303
316 318 320 319 319 319 322 323 321 321 322 324 320 315 316 315 314 316 314 317 319 316 319 322 315 315 321 322 317 314 316 312 308 306 304 302 302 301 301 301 300 301 301 302 302 304 304 305 305 305 306 306 306 307 307 307 307 307 307 307 306 307 307 307 307 307 307 307 307 307 307 306 306 305 305 305 305 305 305 304 304 304 303 303 303 302
316 316 317 320 321 319 323 323 321 322 320 317 317 317 319 318 316 316 315 317 316 315 320 323 317 316 323 329 321 314 317 316 309 306 304 302 301 300 300 300 299 300 300 300 300 302 302 303 303 304 305 305 305 306 306 306 306 306 306 306 306 306 306 306 306 306 306 306 307 307 306 306 306 305 305 305 304 304 304 304 304 303 303 303 302 302
314 311 312 316 318 318 320 317 315 318 315 312 316 321 323 322 320 318 318 318 315 319 325 322 319 317 321 332 325 315 318 315 309 306 303 301 300 299 299 298 298 299 299 299 299 300 301 302 302 303 304 304 304 305 305 305 305 305 305 304 305 305 305 305 305 305 305 305 306 306 306 306 305 305 305 305 305 304 304 303 303 303 303 303 302 302
313 313 313 314 313 313 316 315 313 313 312 313 319 322 322 324 325 320 320 320 317 324 331 324 320 316 318 329 323 314 314 312 308 306 303 301 300 298 297 298 297 298 299 299 300 301 302 302 303 304 304 304 304 304 304 304 304 304 304 303 304 304 304 304 304 304 304 304 304 304 304 304 304 304 304 304 304 304 304 303 303 303 302 302 302 302
317 318 315 313 312 312 315 317 316 314 314 316 319 320 321 323 325 323 321 321 321 326 327 322 321 318 318 324 318 311 309 308 307 305 302 300 299 297 297 297 297 298 300 300 301 302 303 303 304 304 304 304 303 303 303 303 303 303 303 303 303 303 303 303 303 303 303 303 303 303 303 303 302 302 302 302 302 302 302 303 303 303 302 302 302 301
323 322 315 313 314 313 314 316 318 320 316 315 316 320 323 322 322 325 323 320 321 324 323 320 320 321 323 320 311 306 304 303 303 302 300 300 298 297 296 296 297 299 301 301 302 303 303 303 303 303 303 303 302 302 302 302 302 302 302 302 302 302 302 302 302 302 302 302 302 302 302 301 301 301 300 300 300 300 301 301 301 302 302 302 302 301
323 324 319 318 317 314 314 313 320 327 318 313 317 320 323 325 324 323 322 320 322 325 325 320 319 324 328 317 305 302 301 300 301 300 299 299 298 297 296 296 298 300 301 302 302 302 302 302 302 302 302 301 301 301 300 300 300 300 300 300 300 300 300 300 300 300 301 300 300 300 300 300 299 299 299 299 298 298 298 299 299 299 300 300 300 300
319 324 322 317 314 314 314 313 317 324 319 313 316 319 321 324 324 321 322 321 320 323 323 320 322 324 318 308 302 302 301 300 300 299 299 298 297 297 297 297 299 300 301 301 301 302 301 301 301 300 300 300 299 299 299 299 298 298 298 298 298 298 298 298 298 298 298 298 298 298 298 298 298 297 297 297 297 296 296 296 297 297 297 298 298 298
317 323 320 314 312 312 313 313 313 317 320 317 316 320 323 323 321 320 322 321 318 319 320 319 322 319 311 307 304 302 301 300 299 298 298 298 297 297 298 298 299 300 301 301 301 301 300 300 299 299 299 298 298 298 297 297 296 296 295 295 295 295 296 296 296 296 295 295 295 295 295 295 295 296 296 295 295 295 295 295 295 295 295 295 295 295
319 321 320 317 317 314 310 311 312 312 316 319 318 321 320 318 320 320 321 321 319 319 320 319 319 317 315 313 306 303 303 301 299 298 297 297 297 297 298 299 300 301 301 301 300 300 299 299 298 297 297 296 296 296 295 294 294 293 293 293 293 293 293 293 293 293 293 293 293 293 293 293 293 293 293 293 293 293 293 293 293 293 293 292 292 292
321 321 322 319 319 317 312 313 316 313 312 314 316 317 316 317 320 320 319 320 319 317 319 320 319 318 319 316 308 305 305 302 300 299 298 297 297 297 298 300 301 301 301 301 300 299 299 298 297 296 295 294 294 293 292 292 291 291 291 291 290 290 290 290 290 290 291 291 291 291 291 291 291 291 291 291 291 291 291 292 292 292 292 291 291 290
321 323 323 319 317 318 317 318 322 320 314 312 313 316 317 317 318 318 319 320 319 316 317 318 317 317 318 315 310 308 304 301 300 301 299 298 297 298 300 301 301 301 300 300 299 298 297 297 296 296 295 293 292 291 290 290 290 290 289 289 289 289 289 289 289 289 289 290 290 290 290 290 290 290 290 290 290 289 290 290 290 290 290 290 290 290
320 321 321 320 318 317 319 320 322 322 318 315 316 316 316 317 318 317 317 318 318 317 317 316 316 318 315 308 307 307 304 300 300 301 300 298 298 300 301 301 301 301 300 300 299 298 297 297 296 295 293 292 290 290 289 289 289 289 289 289 289 289 289 289 289 289 289 289 289 289 289 289 289 289 289 289 289 289 289 289 289 289 289 288 288 288
316 318 321 321 319 318 321 321 317 319 321 320 319 319 319 319 318 317 316 317 317 317 318 316 317 318 312 305 304 304 302 300 299 300 299 299 301 302 301 302 301 300 300 299 298 297 296 294 293 291 290 289 289 289 289 289 289 289 289 289 289 289 289 289 289 289 289 289 289 289 289 289 289 289 289 289 289 289 289 289 289 289 289 288 288 288
311 316 319 319 317 317 319 317 312 314 320 321 318 318 320 319 318 317 316 317 317 316 316 315 315 315 309 304 304 302 301 300 300 300 300 301 302 302 302 302 300 299 298 297 295 294 293 292 291 289 289 289 289 289 289 289 289 289 289 289 289 290 289 290 290 290 290 289 289 289 289 289 289 289 289 289 289 289 289 289 289 289 289 289 289 289
312 317 318 318 318 317 316 315 312 313 316 317 315 315 317 317 316 316 315 315 315 314 315 315 315 315 308 303 302 301 300 300 300 302 303 302 303 302 301 300 299 297 296 295 294 293 292 291 290 289 289 289 289 289 289 289 290 290 290 290 290 290 290 290 290 290 290 290 289 289 289 289 289 289 289 289 289 289 289 289 289 289 289 289 289 289
313 316 315 316 316 315 314 315 314 315 315 314 313 313 313 313 313 313 313 314 313 313 314 314 314 314 309 303 301 302 301 301 300 301 303 303 303 303 301 299 298 296 294 293 293 292 291 290 289 289 289 289 289 290 290 290 290 290 290 290 290 290 290 290 290 290 290 289 289 289 289 289 289 289 289 289 289 289 289 289 289 289 289 289 288 288
315 315 314 314 313 312 313 314 314 314 314 312 313 313 312 312 313 312 311 312 313 312 311 311 312 312 308 304 303 304 303 302 301 301 301 302 302 302 300 298 297 295 293 293 292 292 291 290 290 289 289 289 290 290 290 290 290 290 290 290 290 290 290 290 290 290 290 289 289 289 289 289 289 289 289 289 289 289 289 289 289 288 288 288 288 288
314 313 313 313 313 311 311 311 311 311 311 310 311 311 310 310 310 310 310 311 311 310 309 309 309 310 308 306 306 306 305 304 302 300 300 300 300 300 299 297 295 294 293 292 292 291 291 290 290 290 290 290 290 290 291 291 291 291 290 290 290 290 290 290 290 290 290 290 289 289 289 289 289 289 288 288 288 288 288 288 288 288 288 287 287 287
312 311 311 312 311 311 311 310 310 309 309 309 309 309 309 308 308 308 309 309 309 308 308 308 307 307 307 306 306 307 307 306 303 300 300 300 299 299 297 296 295 294 293 292 292 292 292 292 291 291 291 291 291 291 291 291 291 291 291 290 290 290 290 290 290 290 290 289 289 289 289 289 289 288 288 288 288 287 287 287 287 287 287 286 286 286
312 311 310 310 310 310 309 308 308 308 307 307 307 307 307 306 306 306 306 306 308 307 306 306 305 305 305 305 305 304 304 304 302 301 301 300 299 298 296 295 294 294 294 293 293 293 293 293 293 292 292 292 291 291 291 291 291 291 290 290 290 290 290 290 290 290 290 290 289 289 289 289 288 288 288 288 287 287 287 286 286 286 286 285 285 285
309 309 308 308 308 308 307 306 306 306 306 305 305 305 305 304 304 304 304 304 306 306 305 305 305 305 304 303 304 302 300 299 299 299 299 299 297 296 295 294 294 294 294 293 293 293 293 293 293 292 292 292 291 291 291 291 291 291 291 291 290 290 290 290 290 290 290 289 289 289 289 288 288 287 287 287 286 286 286 286 285 285 285 285 285 284
305 307 306 306 306 307 305 304 304 306 306 304 304 304 303 303 303 303 302 303 303 303 304 304 304 304 303 300 299 299 298 297 297 297 297 297 296 295 294 294 293 293 293 293 292 292 292 292 292 292 292 292 291 291 291 290 290 290 290 290 290 290 290 290 289 289 289 288 288 288 287 287 287 286 286 286 286 285 285 285 285 284 284 284 284 284
306 305 304 305 305 305 303 301 303 305 304 303 302 301 301 301 301 302 302 302 303 302 302 302 302 303 302 298 296 296 295 294 294 294 295 295 295 294 293 293 292 292 292 292 292 292 291 291 291 291 291 291 290 290 290 289 289 289 289 289 289 289 289 288 288 288 287 287 286 286 285 285 285 285 284 284 284 284 284 284 284 284 284 284 284 283
306 305 305 305 303 302 301 301 302 302 301 300 300 299 299 299 299 300 300 301 301 300 301 301 300 301 301 299 299 297 293 291 292 292 292 293 293 293 292 292 292 291 292 291 291 291 291 291 291 290 290 290 289 289 289 289 288 288 288 288 288 288 287 287 287 286 286 285 285 284 284 283 283 283 283 283 282 282 282 282 283 283 283 283 283 283
304 304 305 305 302 300 300 300 301 300 298 298 299 300 300 299 299 299 299 299 300 300 301 300 300 302 301 300 300 297 293 292 292 292 292 292 292 292 292 292 292 291 291 291 291 291 291 290 290 290 289 289 289 289 288 288 288 288 287 287 287 287 287 286 285 285 284 284 283 283 283 283 282 282 282 281 281 281 281 282 282 282 282 282 282 282
303 302 303 303 301 299 299 300 299 298 298 298 300 302 301 300 300 300 299 299 299 300 300 298 300 303 299 296 296 294 292 292 292 291 292 292 292 292 292 291 291 291 291 291 290 290 290 290 289 289 289 289 289 288 288 288 287 287 287 287 286 286 285 285 284 283 283 283 283 283 282 282 282 281 281 281 281 281 281 281 281 281 280 280 281 281
301 301 301 301 300 299 299 299 297 297 297 297 298 298 297 297 298 298 298 298 298 298 298 297 299 299 294 292 293 292 291 291 291 291 292 292 292 292 292 291 291 291 291 291 290 290 290 289 289 289 289 289 288 288 287 287 287 286 286 286 285 284 284 283 283 283 283 283 282 282 281 281 281 281 281 281 280 280 280 280 279 279 279 279 280 280
299 300 299 299 299 298 298 298 298 297 297 297 297 296 296 296 297 297 298 298 297 296 296 298 300 295 290 290 292 291 291 291 291 291 291 292 292 292 291 291 291 290 290 290 290 290 289 289 289 289 289 288 288 287 287 286 286 286 285 285 284 283 283 283 283 283 283 282 282 281 281 280 280 280 280 280 279 279 279 279 279 279 278 278 279 279
298 299 299 297 297 298 296 296 297 296 296 297 296 295 295 294 295 296 298 299 297 294 294 298 298 292 288 290 291 290 291 291 292 292 291 291 292 291 291 291 290 290 290 290 290 289 289 289 289 288 288 287 287 287 286 286 286 285 285 284 283 283 283 283 282 282 282 282 281 281 280 280 280 279 279 278 278 278 279 278 278 278 278 277 277 278
296 297 298 298 297 297 296 296 296 295 296 297 296 294 293 293 294 296 297 299 296 291 292 295 293 289 289 290 290 290 291 292 294 293 291 291 291 291 290 290 290 290 290 289 289 289 289 289 288 288 288 287 287 286 286 286 285 284 283 283 282 282 282 282 282 281 281 281 280 280 280 279 279 278 278 278 278 278 278 278 277 277 276 276 275 275
295 296 297 297 297 297 296 296 295 295 297 296 295 294 293 293 295 296 296 298 295 291 292 294 291 289 290 290 290 291 292 293 295 293 290 290 291 290 290 290 289 289 289 289 289 289 288 288 288 287 287 287 286 286 286 285 284 283 283 282 282 282 282 281 281 280 280 280 280 279 279 278 278 278 277 277 277 277 277 276 276 275 274 274 273 273
294 295 296 296 296 296 296 296 295 296 296 295 294 294 294 293 294 295 295 297 295 292 292 294 293 291 291 291 290 291 292 292 292 291 290 290 290 290 290 289 289 289 289 289 289 289 288 288 287 287 287 286 286 285 285 285 283 283 282 282 282 281 281 280 280 280 280 280 279 278 278 277 277 277 277 277 277 276 276 275 274 274 273 273 273 272
294 294 295 295 295 295 295 296 295 295 295 294 293 293 293 293 295 295 295 295 294 292 292 293 293 292 291 291 291 291 291 291 291 290 290 290 290 290 289 289 289 289 288 288 288 288 288 288 287 287 286 286 285 285 284 284 283 282 282 281 281 280 280 280 280 279 279 279 278 278 277 277 277 277 276 276 275 275 275 274 273 272 272 271 271 271
294 293 294 294 294 294 294 293 293 294 293 293 293 294 294 295 296 296 294 293 293 293 293 292 292 292 292 291 291 291 291 291 291 290 290 290 290 289 289 288 288 288 288 288 288 288 287 287 287 286 286 285 285 284 283 282 282 282 281 280 280 280 279 279 279 279 279 278 278 277 277 277 277 276 276 275 274 274 274 273 272 271 271 270 270 270
294 295 296 295 294 295 294 294 294 294 293 293 294 295 295 295 295 294 293 293 293 293 293 292 292 293 292 292 292 291 291 291 290 290 290 290 289 289 288 288 288 288 288 288 287 287 287 286 286 286 285 285 284 283 282 281 281 281 280 279 279 279 279 279 279 279 278 278 277 277 277 277 276 276 275 274 274 273 273 272 271 271 270 270 269 269
294 295 296 295 294 294 295 296 296 295 293 293 294 294 294 294 294 294 294 293 293 293 292 292 292 292 292 292 292 291 291 291 290 290 290 289 289 288 288 288 288 288 287 287 287 287 286 286 285 285 285 284 283 282 281 281 281 280 279 279 279 279 279 279 278 278 278 277 277 277 276 276 276 276 275 274 273 272 272 271 271 270 270 270 269 268
292 292 293 293 293 293 293 293 293 292 292 293 293 293 293 293 293 293 293 293 293 292 292 292 292 292 292 292 292 291 291 290 290 289 289 289 289 288 288 287 287 287 287 287 286 286 286 285 285 284 284 283 282 281 281 280 280 279 279 278 278 278 278 278 278 277 277 277 277 276 276 276 276 275 275 274 272 272 271 271 270 270 270 270 269 267
292 291 291 292 293 293 292 292 292 292 292 293 292 292 293 292 292 292 292 292 292 292 292 292 292 292 292 292 291 291 291 290 290 289 289 289 288 288 287 287 287 286 286 286 286 285 285 284 284 284 283 282 281 281 280 280 279 278 278 278 278 278 277 277 277 277 277 276 276 276 276 276 276 275 274 273 272 271 271 271 270 269 270 270 268 267
292 292 292 292 292 292 291 292 292 292 292 292 292 292 292 292 292 292 292 292 292 291 291 291 291 291 291 291 291 291 291 290 289 289 289 288 288 288 287 287 286 286 286 285 285 285 284 284 284 283 283 281 281 280 280 279 278 277 277 277 277 277 277 276 276 276 276 276 276 276 276 275 275 275 274 273 272 271 271 271 270 270 270 270 268 265
292 292 292 292 292 292 292 291 291 291 292 291 291 292 292 292 292 292 292 292 292 291 291 291 291 291 291 291 291 291 290 290 289 289 289 288 288 287 287 286 286 286 285 285 284 284 283 283 283 282 281 281 280 280 279 278 277 277 277 276 276 276 276 276 276 276 276 276 276 275 275 275 274 274 273 272 271 270 270 271 270 269 269 269 268 265
292 292 292 292 292 292 292 291 291 291 291 291 291 292 292 292 292 292 292 292 291 291 291 291 291 291 291 291 291 290 290 290 289 289 289 288 287 287 286 286 285 285 285 284 284 283 283 283 282 281 281 280 280 279 278 277 276 276 276 275 275 275 275 275 275 275 275 275 275 275 275 275 274 274 273 271 270 270 270 271 271 270 268 268 268 267
292 292 292 292 292 292 292 292 292 291 291 291 292 292 292 292 292 292 292 292 291 291 291 291 291 291 290 290 290 290 289 289 289 289 288 287 287 286 286 285 285 284 284 283 283 283 282 282 281 280 280 279 279 278 277 277 276 275 275 274 274 275 274 274 274 275 275 275 275 275 274 274 274 273 272 271 270 270 270 271 272 272 271 269 268 268
Wind_Speed
10 4 2 5 6 8 10 11 11 9 8 8 7 6 6 5 5 6 6 7 6 4 6 7 6 6 8 7 13 26 25 17 17 13 6 18 20 21 24 24 23 23 22 18 16 16 15 13 12 10 8 6 4 5 5 4 3 3 2 2 4 4 4 5 5 5 7 9 11 13 13 14 15 16 18 20 21 22 22 24 25 25 26 26 27 27
8 4 6 9 10 12 11 10 8 7 7 7 6 5 5 4 6 5 6 8 6 3 5 5 6 7 9 9 18 23 15 11 7 7 16 20 21 22 23 23 24 23 21 21 21 21 21 20 20 19 18 17 15 12 9 7 6 5 4 5 7 6 5 6 5 4 6 7 8 10 11 12 14 14 15 16 17 18 19 21 21 22 23 23 24 25
4 4 9 13 12 10 9 7 6 8 7 6 4 4 4 4 4 5 5 6 5 2 4 6 6 7 9 12 16 11 8 12 15 21 19 20 23 21 22 23 23 24 24 25 26 26 26 25 26 27 28 28 26 24 21 19 17 15 14 13 10 7 6 6 5 5 5 4 4 5 7 8 10 11 12 12 13 14 15 16 18 19 20 20 21 22
4 6 13 16 11 7 8 8 7 7 5 4 4 4 5 4 2 4 5 6 5 2 3 5 6 5 8 9 7 10 16 19 22 25 24 24 25 22 22 23 24 26 26 27 28 28 28 29 30 31 32 31 31 31 30 28 27 25 24 21 18 14 11 9 7 6 6 4 3 3 3 3 4 5 6 6 7 8 9 11 12 13 14 15 16 17
5 8 12 10 6 7 9 9 7 5 4 3 4 4 5 4 3 5 4 5 5 4 2 4 6 4 6 6 2 8 13 17 18 21 23 22 23 23 24 24 25 26 27 28 29 29 29 30 31 32 32 32 33 33 32 31 30 29 28 26 24 22 19 17 15 12 9 7 5 4 4 3 3 3 3 3 4 4 5 6 6 7 8 9 11 12
7 9 9 6 5 7 7 7 6 5 2 4 4 6 6 5 4 3 3 5 5 5 3 5 5 5 5 5 3 4 7 9 11 14 17 17 19 22 24 24 24 25 26 28 28 29 29 30 30 31 31 32 33 33 31 30 30 29 29 28 26 25 24 22 21 20 18 15 12 8 5 4 3 3 2 1 1 1 1 2 2 2 3 4 5 7
5 7 5 5 6 6 6 6 6 6 3 3 4 5 6 5 3 1 4 4 2 2 3 4 1 6 3 6 7 4 7 5 7 9 11 15 17 20 22 22 22 24 25 27 28 28 29 29 29 30 30 31 32 31 29 28 28 29 28 27 27 26 25 24 23 22 21 20 19 17 14 10 7 4 3 2 3 4 4 5 5 5 4 2 1 2
4 3 3 5 4 4 5 6 5 7 6 3 5 5 6 4 1 1 3 1 3 2 5 2 4 4 3 7 9 5 8 3 5 6 7 13 16 18 20 19 21 22 24 26 28 28 29 29 29 29 29 29 29 28 26 26 26 26 26 26 25 25 24 23 22 21 21 21 21 20 18 15 12 9 5 3 4 5 5 6 7 8 8 6 4 3
2 4 5 5 4 3 5 6 4 7 4 5 5 5 4 2 2 2 3 2 2 1 5 5 4 2 4 6 4 5 6 2 4 4 5 9 13 16 17 17 18 21 23 25 26 28 28 28 28 28 27 26 25 24 24 25 24 23 23 22 22 22 23 22 21 20 20 21 21 20 19 18 16 14 11 7 6 6 7 7 8 9 10 9 8 7
0 3 5 6 5 5 6 5 3 6 3 4 4 3 4 2 1 2 4 2 1 1 4 6 4 2 5 5 2 3 4 5 4 4 5 9 13 15 16 17 17 19 23 23 24 26 26 26 26 25 24 24 23 22 22 21 21 20 20 19 19 21 21 20 19 19 19 19 19 19 19 18 18 16 15 13 11 10 9 9 9 10 10 10 10 9
1 1 0 3 5 6 5 0 2 4 4 4 5 4 6 5 3 2 2 3 3 2 6 8 7 5 3 5 2 2 3 8 8 5 6 9 12 14 15 17 17 19 23 22 23 25 24 24 23 22 22 22 21 20 18 18 18 18 18 17 18 19 19 18 18 17 17 17 18 18 18 18 18 17 16 15 15 14 13 11 10 10 9 9 9 10
2 1 2 3 5 4 5 2 3 3 3 5 5 4 4 4 4 4 4 3 2 4 7 6 6 7 4 5 4 2 2 6 9 8 9 9 12 14 15 16 17 19 22 22 22 23 22 21 20 19 19 19 18 17 16 17 16 16 17 16 16 17 17 17 16 16 16 16 17 18 18 17 17 17 16 16 16 16 15 14 12 11 9 8 8 9
2 4 4 1 2 5 5 2 3 5 4 5 4 5 3 2 3 2 2 0 2 6 5 3 3 4 6 6 2 4 7 4 7 10 13 14 15 15 15 16 17 19 21 21 20 20 19 18 17 17 16 16 15 15 15 15 15 15 15 14 15 16 16 16 15 14 14 15 16 17 17 17 16 16 16 16 16 15 15 15 14 13 12 11 9 9
2 5 3 0 2 6 8 4 2 2 1 5 4 4 4 2 1 3 3 2 3 5 5 3 1 0 4 4 3 5 6 8 16 20 20 20 19 17 16 17 18 19 20 19 18 17 16 16 15 14 14 14 13 13 13 13 13 13 13 14 14 15 14 13 13 12 13 14 15 15 15 15 15 15 15 15 15 15 14 14 14 14 14 14 13 12
2 5 3 4 2 7 9 6 5 4 3 4 4 5 5 4 4 3 3 3 3 5 4 2 0 2 3 1 3 6 9 16 22 23 22 21 19 17 16 17 18 19 18 17 15 14 14 13 12 12 12 12 11 11 11 11 11 11 12 12 12 12 12 11 11 11 12 13 13 13 14 14 14 14 14 14 14 14 14 14 14 14 14 14 14 14
3 5 5 2 2 8 6 3 5 6 1 2 3 4 2 3 4 2 3 4 3 4 4 2 2 3 3 2 4 7 11 15 19 20 20 18 16 16 16 16 17 17 16 14 12 12 11 10 9 9 9 9 9 9 9 9 10 9 10 10 10 10 10 10 11 11 11 11 11 11 12 12 13 13 13 14 14 14 14 14 13 13 14 14 14 14
2 5 4 3 1 6 5 2 3 3 1 1 2 2 4 4 5 2 4 2 2 3 4 2 2 2 2 2 2 5 7 9 10 13 15 15 14 15 15 15 16 14 12 11 9 8 7 7 6 6 7 7 7 7 7 8 8 8 8 8 8 8 8 9 9 10 10 10 10 11 11 11 11 12 12 13 14 14 14 14 14 14 14 13 14 14
3 3 4 1 1 5 3 2 1 2 3 3 2 4 3 1 3 2 1 2 1 4 4 2 4 4 2 2 0 3 5 5 5 7 10 12 13 14 14 15 13 11 9 7 6 5 4 4 4 5 5 6 6 6 7 7 8 8 8 8 8 8 8 9 8 8 8 9 10 10 11 11 11 11 11 11 12 13 13 13 15 16 16 17 17 16
3 1 6 2 2 3 1 3 2 4 4 4 3 3 1 1 1 0 1 2 3 4 4 5 6 5 4 4 3 4 5 6 5 5 7 8 11 13 14 13 10 8 5 3 3 2 2 2 2 3 4 5 6 6 7 8 8 9 9 9 10 10 10 10 10 9 9 9 10 10 10 10 10 11 11 11 12 12 12 13 13 15 16 17 18 19
2 2 4 4 0 1 3 3 2 3 3 3 2 2 1 3 3 2 2 3 3 4 4 5 6 4 3 4 5 7 8 8 7 5 5 8 12 14 13 10 7 6 3 2 3 4 3 3 2 2 2 3 5 6 7 8 9 10 11 11 12 13 13 13 13 13 13 13 12 11 11 10 10 10 10 11 12 13 14 14 14 14 15 16 17 19
2 2 3 4 4 1 1 1 5 4 1 2 1 1 1 1 1 1 2 2 3 4 4 5 6 4 2 2 4 7 8 8 8 7 6 10 14 14 11 8 6 5 4 5 6 6 5 5 4 4 4 4 6 6 8 9 10 11 12 12 13 14 15 15 16 16 17 17 17 16 16 15 15 14 14 14 14 14 14 15 15 15 16 16 17 18
1 2 2 3 3 0 4 5 5 6 5 4 3 3 3 1 0 3 4 2 3 4 4 5 6 4 2 1 1 5 7 7 10 11 10 15 16 13 10 7 6 6 6 7 8 7 6 5 4 5 6 6 7 8 8 9 10 11 13 14 14 15 16 17 17 18 18 19 19 19 20 20 20 20 21 20 20 20 19 19 19 19 19 19 20 21
2 3 2 3 4 4 6 5 1 4 6 5 2 2 3 3 3 3 5 2 1 2 1 2 3 2 1 2 1 5 8 12 17 17 15 18 17 13 12 9 7 8 8 8 8 7 5 5 5 5 6 6 7 8 9 10 11 13 15 16 17 17 17 17 18 18 18 18 19 20 20 21 22 23 24 25 26 26 26 26 26 25 25 25 25 25
3 3 1 3 4 3 4 4 5 4 4 3 1 0 3 3 4 4 4 1 1 3 3 3 4 2 2 3 3 7 11 14 18 18 16 17 16 14 13 10 8 9 9 8 8 6 5 5 4 5 5 5 6 7 9 10 12 14 16 17 18 18 18 18 18 18 19 19 19 20 20 22 23 25 26 27 28 29 30 31 32 32 32 32 32 31
2 1 2 1 3 5 5 4 5 5 2 2 2 2 2 3 3 2 2 1 2 5 6 6 5 2 1 0 2 5 7 9 14 18 16 15 16 16 14 12 10 10 9 9 8 7 6 6 5 4 4 5 5 7 9 11 13 15 16 17 18 19 19 20 20 21 21 22 23 23 24 26 27 28 29 30 30 31 32 33 34 35 35 36 37 37
3 2 3 4 4 6 4 3 2 1 2 0 1 2 2 3 4 2 1 3 4 2 2 4 4 2 1 1 1 3 5 6 12 17 17 17 17 17 15 14 12 11 10 9 8 7 6 5 4 3 3 4 5 8 10 13 14 16 17 18 19 19 19 20 21 22 24 25 26 27 29 30 31 32 33 33 34 34 35 36 36 37 37 38 39 39
3 1 3 5 6 7 5 5 4 3 1 3 5 5 6 5 5 4 3 4 3 1 3 7 6 5 7 6 5 5 6 7 10 14 17 18 17 15 13 13 12 11 10 9 8 7 6 5 3 1 2 5 7 9 12 14 16 18 19 19 20 20 20 20 21 22 23 25 26 28 30 32 33 34 35 36 36 37 37 38 38 39 39 40 40 41
4 1 3 5 6 7 5 4 3 1 2 6 7 8 9 7 5 6 5 4 2 2 7 11 7 5 9 10 6 6 7 7 9 12 16 18 17 14 12 11 11 10 9 8 7 5 4 3 3 4 6 7 9 11 13 14 15 16 17 18 18 18 18 19 20 21 22 23 26 28 31 32 33 35 36 38 38 39 39 40 40 41 41 42 42 43
4 3 4 4 5 7 5 4 4 3 3 5 6 9 11 11 8 7 7 7 6 7 10 12 10 9 11 11 7 6 7 9 12 14 14 14 16 14 12 12 11 10 9 7 5 4 3 4 4 6 7 8 9 10 11 13 14 15 16 17 17 16 17 19 20 21 22 24 27 30 31 33 35 36 37 38 39 39 40 41 42 43 44 45 46 46
4 2 3 3 4 7 6 4 3 4 5 7 10 12 14 14 12 8 9 9 9 11 13 12 13 14 12 7 6 7 7 8 9 7 6 11 16 15 13 13 11 8 7 6 5 4 4 4 4 5 6 7 8 10 11 12 14 16 17 18 17 17 17 19 21 23 25 28 31 32 34 35 37 38 38 39 39 40 41 42 44 45 46 47 48 49
2 1 1 2 0 6 4 1 2 5 6 7 11 14 13 12 11 11 10 9 8 10 12 10 10 12 8 3 4 5 4 6 8 9 11 13 14 14 13 11 9 7 7 7 7 6 6 5 5 6 7 7 7 8 10 13 15 17 18 18 18 18 19 21 23 24 26 29 31 32 34 35 36 37 38 38 40 42 43 45 47 48 49 50 51 52
2 1 1 4 1 6 3 3 4 6 4 7 13 17 15 11 10 10 8 7 9 10 9 7 8 9 5 3 3 3 6 8 9 10 11 12 13 13 12 10 8 7 8 9 9 8 7 7 8 8 8 8 9 11 14 18 20 21 21 21 21 22 23 25 26 27 28 28 29 30 32 33 35 37 38 40 41 43 44 46 47 49 50 52 53 54
3 3 1 3 2 5 2 4 4 2 4 7 12 13 14 12 11 10 9 10 11 8 6 7 8 7 5 5 5 3 5 7 9 10 10 11 11 10 9 8 7 7 9 10 9 8 7 8 9 9 9 11 13 16 19 21 21 21 22 22 23 24 25 27 27 28 29 29 30 32 34 36 38 39 40 41 42 43 44 45 47 48 49 50 51 53
4 5 3 3 3 4 2 4 3 2 6 8 5 6 9 10 11 11 12 12 10 7 6 6 4 4 5 7 8 7 6 7 8 8 6 6 7 9 9 9 8 9 10 10 8 8 8 9 10 10 10 13 16 19 21 21 21 21 22 23 24 26 27 28 29 29 30 31 33 35 37 39 40 41 41 42 43 44 44 45 46 47 47 48 49 50
5 5 3 3 3 2 2 5 3 8 9 4 1 3 6 8 9 10 11 10 9 8 7 5 3 5 8 9 10 11 10 7 5 4 3 5 8 10 10 9 9 9 9 8 8 9 10 11 11 11 13 16 19 21 22 22 21 22 23 24 26 27 28 29 30 31 33 35 37 38 39 40 41 42 43 43 44 44 45 45 46 47 47 48 49 50
6 5 3 2 3 1 2 4 6 6 5 6 6 4 3 3 5 5 7 8 8 7 7 6 7 8 9 10 12 11 9 5 2 2 4 6 8 9 8 7 7 6 7 8 11 12 13 13 12 14 16 19 20 21 22 22 23 24 25 26 27 28 28 30 31 34 36 38 39 40 40 41 42 42 43 43 44 45 45 46 47 47 48 49 51 52
7 5 3 2 2 2 3 6 5 4 8 11 10 4 2 4 5 4 4 8 7 4 5 5 5 6 9 11 11 9 6 3 3 3 6 6 6 7 6 5 5 7 9 11 13 14 14 14 14 15 18 19 21 22 22 23 25 26 28 28 28 29 30 32 34 37 38 40 40 41 41 41 41 42 42 43 44 45 46 47 48 49 49 50 52 53
6 5 5 3 3 2 3 4 4 3 6 9 6 3 1 2 5 6 2 4 6 3 5 7 6 7 9 10 10 8 6 2 2 4 9 8 5 5 5 7 8 9 11 12 14 14 15 15 16 17 19 21 22 23 24 25 27 29 29 30 30 31 33 35 37 39 40 40 40 40 40 40 40 41 42 43 43 45 47 48 49 50 50 50 52 54
6 4 5 4 4 4 4 5 5 5 6 5 3 2 2 4 7 7 3 4 5 4 5 7 8 10 12 13 13 9 5 2 4 6 8 9 7 7 9 11 10 11 12 14 15 16 17 17 18 19 21 22 24 24 26 28 29 30 30 31 31 34 36 37 39 39 40 40 40 39 39 39 39 40 42 43 45 46 48 49 50 50 50 50 50 51
4 3 4 5 6 7 7 6 5 5 5 5 5 5 4 3 6 6 3 7 5 4 6 9 13 17 17 15 13 8 4 6 6 6 6 9 9 10 12 12 12 12 14 16 17 19 19 20 20 22 23 24 25 26 27 29 31 31 31 32 34 36 38 38 39 39 39 39 38 37 37 38 39 41 42 45 46 47 48 49 49 49 48 48 47 47
2 1 3 6 8 10 9 6 4 4 4 5 7 9 7 3 4 1 5 7 6 7 9 12 17 22 21 16 14 10 10 10 7 8 6 8 9 11 13 12 12 13 15 18 20 21 21 22 23 24 26 27 27 28 29 31 32 32 32 34 36 37 38 39 39 38 38 38 37 37 37 38 40 41 43 44 46 47 48 47 46 46 45 45 46 45
2 1 2 4 5 6 6 5 5 4 4 8 10 9 8 4 1 6 6 4 7 10 12 15 18 20 19 17 16 14 13 12 10 10 10 11 12 13 13 13 14 16 18 20 21 22 23 24 25 26 27 27 28 29 31 32 32 33 34 35 37 38 38 38 38 38 38 37 36 37 38 39 40 42 43 43 44 45 46 45 43 43 42 42 43 43
5 3 3 4 4 3 3 5 5 4 4 11 10 3 4 5 5 6 6 7 9 11 13 17 19 18 18 19 17 15 15 15 14 13 13 13 13 13 15 16 16 18 20 21 22 23 24 25 26 27 27 27 28 30 31 32 33 34 35 36 37 37 37 37 37 37 37 36 37 38 38 39 40 41 42 42 42 43 44 42 40 39 39 39 40 41
3 4 4 4 3 4 4 5 6 5 7 15 14 5 7 13 12 9 8 9 11 13 15 18 19 19 21 22 18 16 17 17 15 14 14 15 15 15 16 18 18 20 22 22 24 25 26 27 27 27 27 28 29 30 31 31 33 35 36 36 36 36 37 37 36 36 36 36 37 38 38 39 40 40 40 40 40 40 40 38 37 37 37 37 38 39
5 6 5 5 3 5 4 5 4 4 8 18 20 15 14 16 18 17 16 16 15 16 17 19 20 21 22 22 19 19 19 18 16 16 16 17 17 17 18 19 20 22 23 24 25 26 27 28 27 27 28 29 29 30 30 32 34 36 35 35 35 36 36 36 35 35 35 36 37 38 39 39 39 39 39 38 38 37 36 36 36 37 37 37 38 39
8 7 4 2 1 1 2 5 4 3 7 14 20 21 19 18 20 21 21 21 19 19 20 22 22 23 23 23 23 22 22 20 18 16 16 17 17 18 19 21 22 23 24 25 26 27 27 27 27 27 29 29 29 30 31 33 34 35 34 34 34 34 34 34 34 35 35 36 37 37 38 39 40 39 39 37 35 34 34 35 36 38 38 38 38 38
8 12 7 2 2 3 2 3 5 8 15 20 22 22 21 21 22 22 23 23 23 25 26 26 26 26 26 26 26 25 24 21 18 16 16 17 19 20 21 22 23 24 25 26 26 27 26 26 27 28 29 29 29 31 33 34 33 33 32 32 32 33 33 33 33 35 35 36 36 37 38 39 39 39 39 37 35 34 34 34 36 37 38 38 38 38
6 9 7 5 6 6 4 6 12 20 26 28 27 24 23 23 24 24 25 26 27 29 30 28 26 26 26 27 28 27 25 21 18 17 17 19 21 23 23 24 25 25 26 27 26 26 26 27 28 29 29 29 30 32 34 34 32 30 30 31 31 31 31 32 33 34 35 35 36 37 37 38 39 39 39 37 35 35 36 35 36 37 37 36 37 38
8 6 4 4 4 4 4 9 15 19 21 25 27 26 26 27 28 29 30 31 30 31 31 29 26 25 25 27 28 27 25 21 19 19 20 21 23 24 25 25 26 26 26 26 25 26 27 28 29 29 29 30 31 33 34 33 30 28 28 29 28 29 30 32 33 33 34 34 35 36 37 38 38 38 38 37 37 37 36 36 37 39 38 36 35 35
9 7 5 3 3 4 6 11 13 9 9 17 25 28 29 29 29 30 30 30 29 29 27 26 25 24 24 26 27 26 24 22 20 20 22 23 24 25 25 26 26 26 25 25 25 26 27 28 29 29 29 31 32 33 33 31 27 26 27 26 27 28 29 31 32 33 33 34 35 36 37 38 37 36 36 37 38 39 39 36 35 36 37 37 35 32
13 11 8 5 6 10 16 20 20 14 12 20 28 30 30 29 28 28 29 28 27 26 24 24 25 25 25 26 27 26 24 22 21 21 23 24 24 25 25 26 25 24 24 24 26 27 27 28 28 29 30 31 32 32 31 28 25 25 25 24 25 27 28 29 31 32 32 33 34 36 37 37 36 35 35 36 38 40 42 41 37 33 33 34 35 33
Wind_Direction
169 138 156 196 211 215 221 216 218 228 225 235 250 257 257 260 271 270 271 280 298 307 264 262 287 298 293 289 284 286 292 299 297 303 79 100 91 85 86 83 80 77 74 73 72 67 63 59 55 53 55 63 92 119 139 149 137 138 148 144 134 138 146 148 166 193 205 220 229 232 234 234 237 238 240 242 243 245 247 249 250 251 252 252 253 254
161 171 221 213 213 220 229 227 227 243 244 243 245 259 270 263 266 272 276 285 318 329 263 296 337 312 299 288 282 288 306 333 345 77 97 93 85 84 85 84 84 85 84 85 81 76 75 72 71 71 72 73 74 80 86 84 82 72 65 77 96 109 110 112 119 139 161 182 201 214 222 226 232 236 240 244 246 248 249 252 253 254 255 255 255 256
166 221 238 226 218 228 251 251 244 253 256 265 269 285 286 271 283 292 294 312 355 353 277 314 324 295 288 279 290 318 43 53 67 90 93 89 88 83 83 86 88 89 88 86 82 81 80 78 79 77 76 75 74 75 75 73 72 68 65 65 77 95 96 97 100 102 113 135 165 188 199 208 219 225 231 236 240 244 246 248 251 252 254 255 255 256
184 232 238 234 223 224 256 260 257 266 271 275 271 281 281 285 313 290 302 331 337 289 262 306 311 297 283 281 335 46 84 78 74 84 86 88 89 86 88 89 90 90 87 86 85 84 84 83 82 81 80 80 79 78 77 75 73 71 69 66 67 72 72 74 79 89 105 123 142 160 171 185 206 216 227 235 238 241 241 243 246 248 251 253 254 255
210 227 227 230 212 201 234 257 259 262 284 272 222 220 254 267 252 238 273 323 323 319 349 7 343 309 268 269 31 72 80 76 76 81 82 86 90 92 93 90 90 90 89 88 87 86 85 84 82 81 81 81 80 78 76 74 73 72 72 69 68 68 68 67 66 68 77 95 123 154 178 186 194 200 212 228 238 240 237 239 240 243 246 247 248 248
237 242 231 241 245 203 208 247 242 211 261 301 237 210 212 210 211 231 323 359 14 338 334 40 10 293 287 293 224 130 68 62 71 75 80 84 88 93 91 89 89 90 90 90 89 88 86 84 84 83 81 80 78 76 75 74 73 72 72 71 70 69 68 66 65 64 63 67 73 81 98 118 136 142 121 95 22 6 326 300 292 280 267 252 246 242
229 234 212 210 231 201 192 242 229 177 154 300 250 190 162 143 130 56 18 24 51 258 293 61 104 267 309 296 261 135 90 74 72 68 76 80 82 87 89 91 92 90 91 91 90 89 87 86 85 83 80 78 76 75 75 74 73 72 71 70 69 67 67 66 65 64 63 64 63 63 65 69 77 89 79 35 12 17 357 338 345 354 359 356 290 253
198 175 123 139 170 170 188 243 228 153 136 248 241 144 109 84 77 55 73 69 227 248 316 324 188 256 277 255 257 121 102 90 81 71 70 78 81 87 90 93 94 93 92 91 90 89 88 87 85 83 81 79 77 76 75 74 72 71 69 68 67 66 66 65 65 65 65 65 65 64 63 62 62 60 57 27 356 5 3 356 357 359 5 17 24 18
190 165 196 168 140 166 201 234 208 139 137 236 222 134 99 105 162 162 123 202 260 20 314 276 184 243 264 258 267 121 133 184 138 118 93 91 92 93 94 93 94 95 93 91 91 90 88 88 86 85 83 80 79 77 75 74 72 70 67 66 65 65 64 64 64 65 66 68 68 68 66 65 64 60 57 49 27 16 13 12 12 6 4 8 14 17
275 168 199 152 142 203 219 243 189 145 177 217 174 100 45 51 144 135 137 155 4 38 257 248 182 188 266 282 308 122 179 202 163 138 119 106 100 98 98 98 97 98 97 93 92 92 91 89 88 87 85 82 79 77 76 75 73 71 68 65 64 64 63 62 61 62 65 68 69 70 69 67 66 64 61 58 53 44 34 26 21 16 9 6 6 7
283 34 347 158 192 203 179 129 66 127 163 127 91 50 20 6 21 54 103 103 60 296 251 233 199 186 268 292 229 193 208 171 153 149 138 112 100 98 98 100 99 99 99 95 93 93 91 89 88 85 82 78 76 76 74 72 69 68 65 62 62 64 64 62 60 58 60 63 65 66 67 66 65 63 60 58 55 51 47 40 32 25 16 8 5 2
311 350 275 227 213 175 123 85 18 40 106 100 77 64 32 338 5 32 6 47 96 253 261 243 199 178 216 264 234 284 327 150 149 159 154 120 100 96 95 99 98 97 99 97 95 94 93 91 87 82 78 74 71 68 64 63 62 61 61 60 61 64 65 63 60 57 56 58 60 60 61 61 59 57 53 51 49 46 44 41 36 32 25 15 7 1
258 232 247 271 225 177 124 77 341 358 42 91 91 86 74 332 358 13 309 70 201 245 249 214 144 162 220 251 269 28 12 36 100 122 132 120 109 103 99 100 99 99 99 96 95 93 90 87 81 76 72 67 64 59 56 55 53 55 57 56 57 60 60 59 59 57 56 56 56 55 54 54 52 50 47 45 42 40 36 34 31 29 26 22 14 6
304 297 264 125 283 192 155 147 226 280 135 140 138 131 133 144 167 258 254 248 262 262 246 210 103 264 247 281 12 49 43 66 91 106 118 117 114 110 107 106 103 100 98 94 92 88 83 79 73 69 65 61 60 58 57 55 52 52 53 52 53 56 57 56 56 54 52 51 51 49 47 45 42 40 39 39 38 37 33 30 27 25 23 20 16 12
227 307 233 188 237 175 170 186 174 143 154 179 161 142 145 157 174 215 224 217 257 276 274 268 282 209 211 335 46 79 79 84 96 107 113 113 116 116 114 112 106 102 99 94 89 84 80 76 71 66 63 60 61 61 60 61 61 57 56 56 56 59 61 57 54 50 47 45 43 42 40 38 35 32 32 31 31 31 30 28 25 22 20 17 14 12
185 260 249 231 143 156 173 219 147 108 97 217 134 112 168 189 168 196 231 205 208 283 286 261 240 207 155 78 67 86 81 82 93 103 107 109 117 121 118 114 109 104 99 94 87 81 77 75 71 65 64 65 66 68 68 70 71 68 65 63 58 58 57 52 49 45 42 41 39 37 36 33 30 27 25 24 24 24 23 21 19 18 16 12 7 5
171 260 278 16 61 176 177 198 156 123 193 208 105 179 222 179 134 146 275 265 132 255 261 216 247 280 91 75 62 81 78 79 87 96 104 114 123 125 123 119 114 107 100 94 86 79 76 75 71 67 68 73 75 76 77 78 80 79 76 73 68 63 57 52 47 42 40 39 36 37 36 31 27 21 16 13 12 12 11 9 9 10 7 3 359 357
165 267 274 145 201 230 182 126 20 50 110 136 170 223 231 73 83 111 264 316 325 251 264 251 248 250 210 227 193 101 103 101 102 105 111 122 131 131 130 127 121 110 101 97 89 82 85 81 73 75 80 83 85 85 86 86 84 82 79 77 74 69 65 62 56 51 45 39 36 35 31 26 22 19 13 9 4 0 358 356 356 356 355 355 354 351
129 297 285 249 184 254 56 87 337 1 61 125 177 223 123 83 308 6 146 229 251 252 273 279 262 247 220 204 175 176 168 146 141 133 130 144 149 145 141 136 128 116 106 106 117 126 127 113 93 91 90 87 90 93 91 88 83 77 70 62 58 54 54 53 49 49 45 41 41 37 31 24 17 12 7 2 358 354 352 350 349 347 345 345 344 343
103 126 281 301 305 299 28 66 212 278 2 52 44 347 51 158 191 215 189 180 212 241 260 272 268 264 236 190 178 199 186 158 152 151 161 171 164 157 149 142 140 137 143 182 182 187 182 175 179 146 113 100 98 92 85 77 68 60 53 46 41 37 36 32 28 27 24 23 24 21 20 17 11 6 360 355 351 350 350 350 348 344 340 337 334 333
71 141 232 303 338 31 29 185 180 189 196 55 35 313 287 219 187 260 245 166 165 216 245 257 260 262 252 219 199 193 166 151 160 158 174 184 174 168 160 156 172 180 195 212 208 206 202 202 197 167 139 117 98 79 66 57 49 46 40 34 31 26 23 20 16 14 11 9 7 4 2 360 358 356 352 349 345 344 345 343 342 340 337 334 331 329
105 161 185 276 315 191 226 225 168 154 151 137 165 200 187 166 186 276 265 217 171 205 214 235 259 271 258 266 160 140 135 153 167 162 176 189 183 180 184 188 203 210 213 213 209 206 199 188 166 138 117 99 82 64 54 46 39 36 30 26 24 19 16 13 10 8 5 2 1 359 357 355 353 351 349 347 344 342 340 337 335 333 330 328 327 327
113 109 123 253 246 220 238 250 168 139 148 143 173 200 161 148 150 212 249 247 224 235 200 210 253 277 246 251 155 135 152 168 171 170 182 193 195 199 204 207 212 213 211 204 199 198 188 168 144 122 101 83 68 56 46 38 31 26 19 15 11 7 4 2 0 358 356 354 353 352 352 351 349 347 346 344 342 341 339 337 336 333 330 327 325 324
87 90 102 272 287 300 301 323 8 43 117 142 308 49 143 165 170 193 221 217 221 238 253 271 253 228 220 232 165 154 165 172 178 185 194 202 208 213 214 216 219 211 204 200 195 190 180 165 141 116 95 73 62 50 37 26 18 12 7 3 360 356 354 351 350 349 347 345 344 342 342 343 341 340 339 337 337 336 335 334 333 332 330 329 327 325
132 114 124 170 304 316 331 344 355 8 52 139 247 253 172 161 165 170 178 184 229 222 224 250 254 234 212 197 125 158 174 188 201 204 209 219 225 227 223 220 218 208 200 195 191 185 178 164 139 118 98 68 49 30 16 7 1 357 356 354 351 348 346 343 341 341 340 338 337 335 334 335 334 333 332 332 331 330 330 330 329 328 327 327 326 325
152 166 133 142 219 245 255 245 225 336 5 234 259 272 233 176 178 189 219 233 245 229 200 244 249 266 283 211 205 222 207 215 228 225 224 230 234 232 226 219 212 202 193 190 188 188 184 172 152 122 80 34 14 1 355 351 349 347 346 346 345 342 338 335 331 330 330 330 330 329 329 329 329 329 329 328 328 327 327 326 325 324 324 323 323 322
117 201 171 164 201 222 221 211 178 112 79 266 278 279 268 244 203 200 235 234 233 333 283 256 245 261 274 255 214 218 224 228 238 233 226 226 229 227 219 208 201 193 187 186 186 186 185 182 182 170 348 341 339 337 337 337 338 338 337 336 337 335 330 327 324 322 323 323 322 322 322 323 323 324 324 324 323 323 323 322 322 321 320 320 319 318
99 277 226 183 213 237 229 230 243 94 200 234 254 263 264 256 209 195 219 218 197 267 264 260 252 243 262 265 234 204 215 229 242 243 235 226 219 213 203 193 190 190 189 188 192 200 211 229 266 300 312 318 323 323 326 328 325 322 321 320 323 323 319 314 311 310 311 312 313 314 315 315 316 318 319 319 319 319 320 320 320 319 318 317 317 316
114 247 238 174 225 255 255 260 287 300 248 237 248 258 263 258 238 222 225 219 212 237 257 265 267 257 260 267 258 226 221 229 244 259 254 226 203 193 186 182 185 189 191 196 211 232 255 278 289 300 305 307 308 307 307 306 302 301 301 302 304 303 297 295 296 300 303 305 307 308 308 309 311 313 314 315 315 316 317 317 317 316 316 315 315 314
104 243 243 168 228 263 264 259 281 281 266 267 264 258 260 262 258 248 240 230 221 233 249 260 266 266 265 257 249 254 245 222 220 227 206 182 178 177 177 180 184 188 191 197 209 216 224 239 253 266 271 273 279 286 291 295 297 298 298 298 297 292 287 288 292 296 300 303 305 306 306 307 309 310 312 313 313 314 314 313 313 313 312 312 311 310
93 189 240 109 223 283 281 160 223 254 254 268 272 264 261 266 269 261 250 244 236 240 249 255 261 267 267 239 231 241 207 166 161 164 165 167 172 176 179 181 184 187 189 191 195 200 207 219 233 243 247 258 275 285 292 298 301 301 297 294 291 289 290 292 294 296 297 297 298 299 300 303 306 308 309 310 311 312 312 312 312 311 310 309 308 307
87 177 328 80 86 281 296 121 218 269 298 285 271 264 259 256 258 257 247 233 234 242 249 251 253 259 266 266 246 196 151 144 142 148 158 167 174 179 180 182 186 192 195 197 200 204 213 229 241 249 258 272 284 289 294 299 302 302 300 297 296 295 296 298 298 298 297 297 297 298 301 304 306 307 308 308 309 309 309 308 308 307 306 305 305 305
129 133 152 118 163 268 282 142 195 288 343 284 262 254 250 248 250 255 255 244 238 236 237 238 244 251 253 252 244 200 143 137 130 129 143 160 172 185 195 199 202 203 201 202 204 208 222 241 251 259 270 280 286 293 298 302 305 305 304 304 303 301 301 300 300 301 301 303 305 306 308 309 309 310 309 309 309 308 308 307 306 305 304 302 302 301
145 138 176 170 166 247 231 122 131 234 261 257 230 196 217 232 238 244 251 250 242 230 230 243 253 241 224 221 217 197 168 154 145 140 151 169 192 216 228 224 215 206 200 202 208 220 241 257 261 266 278 287 293 300 304 306 307 306 306 306 306 305 305 305 305 306 308 309 310 311 311 311 312 312 311 311 311 310 309 308 307 306 305 304 303 301
157 155 186 178 152 206 146 103 163 234 241 252 176 182 207 212 219 235 251 255 246 237 239 250 240 212 207 207 196 178 163 157 157 172 202 218 228 237 241 229 210 201 200 209 228 246 258 260 261 272 283 290 297 302 305 306 307 307 307 307 307 306 307 307 308 310 311 312 313 313 313 314 314 314 314 314 314 313 312 311 310 309 308 307 305 304
166 166 176 173 169 186 157 178 215 241 284 303 289 270 256 224 217 239 270 266 247 228 221 229 231 213 193 179 169 163 162 157 139 194 216 220 225 228 226 211 201 215 234 250 259 261 258 257 263 277 285 291 298 304 306 308 310 310 310 309 308 308 309 309 311 312 313 314 315 316 317 317 317 317 317 316 315 314 314 313 312 311 309 307 305 304
160 163 174 190 209 192 199 227 250 327 316 286 272 257 230 235 219 198 247 265 256 208 168 181 208 197 172 160 152 151 158 135 75 120 148 158 178 186 195 213 242 269 272 266 261 254 251 255 267 279 288 296 304 308 310 311 312 311 311 310 310 310 311 312 313 314 315 316 317 318 320 320 320 319 318 317 315 315 314 313 312 310 308 306 305 303
168 181 177 191 233 186 175 245 272 297 273 262 261 253 209 195 174 150 152 279 275 234 175 167 172 172 163 156 154 151 142 106 312 181 155 155 173 190 232 269 280 283 275 263 255 250 252 261 274 285 296 304 309 311 312 312 311 311 310 310 311 313 314 315 316 316 317 318 319 320 321 321 320 319 317 316 315 315 314 312 311 310 309 307 306 304
173 190 173 185 234 208 192 229 233 240 250 243 225 207 123 122 132 111 53 296 266 245 208 176 167 173 172 168 165 154 128 155 248 225 190 198 223 241 264 277 282 279 269 258 254 254 258 269 280 291 301 308 310 311 311 310 311 310 310 312 313 315 316 317 317 317 318 319 320 321 321 320 319 318 317 317 317 316 315 313 312 312 311 309 308 306
148 165 177 197 223 223 222 231 235 242 242 226 210 191 151 96 86 72 341 268 238 215 200 182 177 182 183 176 167 159 165 195 235 277 241 215 231 254 269 278 280 274 265 260 260 263 268 277 286 295 303 308 309 310 310 310 310 310 311 313 315 316 317 318 318 318 319 320 322 322 321 321 320 320 320 319 318 317 316 315 315 314 313 311 310 309
114 156 209 212 223 226 224 231 253 254 218 203 203 186 164 95 58 107 252 243 213 202 202 194 190 188 186 183 179 193 222 230 259 295 269 231 247 267 274 278 274 267 263 262 265 269 274 281 289 297 304 308 309 309 309 309 309 311 313 315 317 317 318 318 318 319 320 322 323 322 322 322 322 322 321 320 319 318 317 317 317 316 315 313 312 310
140 125 242 227 224 228 226 231 258 276 216 188 192 184 160 131 237 234 231 213 201 205 199 194 195 191 189 197 205 219 245 265 282 285 268 256 263 270 273 274 269 263 262 262 264 269 276 282 289 296 303 306 307 308 308 309 310 312 314 317 318 318 318 318 319 320 321 323 323 323 323 324 323 322 322 321 321 320 319 319 318 316 315 314 312 311
166 157 225 224 197 183 223 228 235 271 213 169 162 154 159 180 218 224 203 195 210 217 210 205 206 203 205 216 226 240 263 280 282 272 260 256 260 266 270 270 267 265 264 265 268 273 279 284 290 298 302 303 305 306 307 308 310 312 315 317 318 318 318 318 319 320 321 322 322 324 324 324 323 323 323 323 324 322 320 320 318 316 315 315 314 313
182 163 190 227 185 150 193 217 207 233 209 173 165 189 215 212 225 229 222 230 236 234 229 224 225 228 227 228 236 253 267 272 268 259 253 255 263 267 265 263 263 265 266 269 274 278 282 287 293 298 300 302 304 305 306 309 311 313 316 318 318 318 318 318 320 320 320 322 323 324 324 323 322 323 324 326 326 324 321 320 319 318 319 319 317 315
212 192 199 239 214 157 188 228 204 201 196 181 186 212 231 236 245 246 245 250 249 243 239 234 236 241 238 237 246 258 257 253 252 254 257 262 265 262 257 257 261 264 267 272 277 280 285 290 295 298 299 302 305 306 307 311 313 315 317 319 318 317 317 318 319 319 320 322 323 323 323 322 323 324 327 329 328 325 323 324 324 324 323 321 319 317
236 238 240 255 230 158 224 235 210 219 231 210 211 225 236 246 253 251 248 248 250 252 251 245 246 250 248 245 249 251 246 242 246 255 260 264 265 259 255 257 261 264 270 275 278 283 287 291 294 297 300 303 305 306 310 313 314 316 318 318 317 316 316 317 317 317 319 322 322 323 324 323 324 327 329 330 329 328 329 331 329 327 325 323 321 320
253 247 240 216 249 273 246 193 200 242 257 252 245 243 242 244 247 247 249 255 262 267 266 260 256 255 253 250 250 248 244 244 250 257 260 263 264 261 259 262 265 269 274 277 281 286 289 292 294 297 300 303 305 308 311 313 315 317 317 316 315 314 315 315 315 316 320 322 323 324 325 325 327 329 330 332 333 335 337 336 331 327 326 325 324 323
244 236 230 223 235 246 246 239 245 253 258 259 259 257 253 251 250 250 256 265 273 276 274 269 263 258 256 254 250 247 246 247 254 262 263 263 264 263 263 265 268 271 275 279 284 288 291 293 296 299 301 304 307 310 311 313 316 317 315 313 313 313 313 314 315 317 321 323 324 326 327 328 330 331 331 334 338 340 340 338 333 329 328 330 328 325
234 228 215 201 222 258 268 248 247 255 262 261 259 257 255 255 256 259 264 269 272 273 272 270 268 265 261 256 249 244 245 251 258 265 266 264 264 264 264 266 269 273 277 283 287 289 292 295 297 300 302 305 309 310 311 313 316 316 313 311 311 312 312 313 315 319 322 325 327 328 329 330 331 332 334 337 341 341 341 339 335 330 329 331 332 327
232 238 230 202 229 261 255 239 235 241 260 260 258 259 259 259 260 262 265 267 267 266 265 266 266 262 256 250 246 243 247 254 261 265 265 263 263 263 265 267 270 274 279 284 287 290 293 296 298 300 303 307 309 310 310 313 316 314 310 309 311 311 312 314 317 321 324 327 329 330 330 331 332 334 337 340 342 341 340 339 337 332 329 330 333 330
228 234 236 224 233 246 252 252 246 237 244 257 261 264 266 267 267 265 264 263 260 257 256 258 260 259 254 251 248 246 249 257 263 265 264 262 262 265 267 269 272 276 281 284 286 290 293 295 297 301 305 308 309 308 309 314 315 310 307 309 311 312 314 317 320 323 327 330 331 331 331 332 333 336 340 343 343 341 338 337 336 335 333 333 333 332